Погода в Звездочке

Россия / Республика Саха (Якутия)     60°29′18″N   137°39′04″E
темп.,
°C
ветер,
м/с
пор.,
м/с
влажн.,
%
обл.,
%
осадки,
мм/ч
давл.,
гПа
погр.,
м
3 марта, ср
ср300:00−31зсз1199100 0.1 102119
03:00−32зсз1199100 0.2 102019
06:00−32зсз0199100 0.1 102019
09:00−31з1195100 0.1 1019223
12:00−29з1286100 0.0 1017590
15:00−29зсз2386100 0.1 1015730
18:00−33з1194100 0.0 101619
21:00−35зсз1198100 0.1 101619
4 марта, чт
чт400:00−34зсз1198100 0.1 101619
03:00−35зсз1198100 0.1 101619
06:00−36сз1198100 0.0 101619
09:00−33сз1296100 0.1 1015156
12:00−30зсз4885100 0.0 1014884
15:00−31зсз6987100 0.1 1014957
18:00−33зсз51094100 0.0 1016560
21:00−38зсз1299100 0.1 101819
5 марта, пт
пт500:00−40сз229969 0.0 101918
03:00−42ссз229985 0.0 102118
06:00−43ссз2297100 0.0 102119
09:00−39сз2396100 0.0 1022226
12:00−36сз2489100 0.0 1021604
15:00−36зсз3587100 0.0 1020722
18:00−40зсз2296100 0.0 102219
21:00−42сз1298100 0.0 102418
6 марта, сб
сб600:00−42с2297100 0.0 102425
03:00−41ссз2296100 0.0 102441
06:00−43ссз2296100 0.0 102521
09:00−39ссз1293100 0.0 1024204
12:00−35сз1286100 0.0 1023552
15:00−33зсз1384100 0.0 1022622
18:00−38сз1194100 0.0 102319
21:00−40с129695 0.0 102418
7 марта, вс
вс700:00−40с1296100 0.0 102419
03:00−41с129699 0.0 102418
06:00−42с129698 0.0 102518
09:00−37ссз139298 0.0 1023230
12:00−32сз128799 0.0 1021463
15:00−30зсз1285100 0.0 1020577
18:00−36зсз1196100 0.0 102219
21:00−38с119795 0.0 102419